Flag for Burkina Faso Weather past 2 weeks in Koudougou, Burkina Faso

Now
81 °F

Overcast.


Feels Like: 85 °F
Forecast: 75 / 89 °F
Wind: 10 mph from Southwest

Location: Ouagadougou Airport

Current Time: Jul 23, 2014 at 12:18:19 PM

Latest Report: Jul 23, 2014 at 11:00 AM


Visibility: 5 mi

Pressure: 30.01 "Hg

Humidity: 79%

Dew point: 73 °F

Location of KoudougouLocation

Historic Weather in Koudougou — Graph

°F

Koudougou temperature yesterday

Maximum temperature yesterday: 86 °F (at 2:00 PM)
Minimum temperature yesterday: 72 °F (at 11:00 PM)
Average temperature yesterday: 81 °F

Past Weeks' High & Low Weather Summary

 TemperatureHumidityPressure
High95 °F (Jul 10, 3:00 PM)100% (Jul 14, 2:00 AM)30.15 "Hg (Jul 14, 2:00 AM)
Low70 °F (Jul 17, 9:00 AM)44% (Jul 10, 4:00 PM)29.86 "Hg (Jul 13, 3:00 PM)
Average82 °F75%29.97 "Hg
* Reported Jul 8 11:00 AM — Jul 23 11:00 AM, Koudougou, Weather by CustomWeather, © 2014

Note: Actual official high and low records may vary slightly from our data, if they occured in-between our weather recording intervals... More about our weather records

Advertising

Koudougou weather history for previous 24 hours

 ConditionsComfort  
Time TempWeatherWind HumidityBarometerVisibility
11:00 AM
Jul 23
81 °FOvercast.10 mph79%30.01 "Hg5 mi
10:00 AM81 °FOvercast.7 mph74%30.04 "Hg5 mi
9:00 AM77 °FOvercast.5 mph83%30.04 "Hg5 mi
8:00 AM75 °FPartly sunny.5 mph94%30.04 "Hg5 mi
5:00 AM73 °FLight rain. Partly cloudy.1 mph94%30.04 "Hg5 mi
4:00 AM73 °FPassing clouds.7 mph94%30.01 "HgN/A
3:00 AM73 °FClear.No wind89%29.95 "Hg10 mi
2:00 AM73 °FClear.3 mph94%29.98 "Hg10 mi
1:00 AM73 °FThunderstorms. Passing clouds.7 mph89%29.95 "Hg5 mi
12:00 AM73 °FThunderstorms. Passing clouds.10 mph94%29.95 "Hg5 mi
11:00 PM
Jul 22
72 °FThunderstorms. Passing clouds.3 mph100%30.04 "Hg4 mi
4:00 PM86 °FBroken clouds.6 mph66%29.95 "HgN/A
3:00 PM86 °FPartly sunny.6 mph66%29.95 "HgN/A
2:00 PM86 °FPartly sunny.16 mph66%29.92 "HgN/A
1:00 PM84 °FPartly sunny.15 mph70%29.95 "Hg5 mi
12:00 PM84 °FLight rain. Partly sunny.15 mph70%29.95 "Hg4 mi
Weather by CustomWeather, © 2014

See weather overviewHow to use our weather pages